[[{"header":{"parameterUnit":"m.s-1","parameterCategory":1,"la1":30.2991,"la2":30.254,"lo1":-89.0895,"lo2":-89.0444,"dy":0.0017,"dx":0.0017,"nx":28,"ny":28,"refTime":"2023-07-30T03:00:00:Z","depth":0,"parameterNumber":2,"parameterNumberName":"U-component_of_WINDS"},"data":[0,0,0,0,0,0,0,0,0,0,0,0,0,0,0,0,0,0,0,0,0,0,0,0,0,0,0,0,0,0,0,0,0,0,0,0,0,0,0,0,0,0,0,0,0,0,0,0,0,0,0,0,0,0,0,0,0,0,1.1481,1.1481,0,1.1479,1.1479,1.1479,1.144,1.1439,1.1438,1.1437,1.1436,1.1437,1.1437,0,0,0,0,0,0,0,0,0,0,0,0,0,1.1454,1.1454,1.1481,1.1481,1.1481,1.1479,1.1479,1.1479,1.144,1.1439,1.1438,1.1436,1.1435,1.1436,1.1437,0,0,0,0,0,0,0,0,0,0,0,0,0,1.146,1.1455,1.1481,1.1461,1.146,1.1479,1.1479,1.1479,1.144,1.1439,1.1437,1.1436,1.1435,1.1436,1.1438,1.1476,0,0,1.1442,1.1442,0,0,0,0,0,0,0,0,1.146,1.1461,1.1464,1.1463,1.1461,1.1458,1.1469,1.1478,1.1441,1.1448,1.1437,1.1435,1.1444,1.1445,1.1448,1.1476,1.1476,1.1442,1.1443,1.1443,1.1444,0,0,0,0,0,0,0,1.1459,1.1461,1.148,1.1464,1.1462,1.1453,1.1453,1.147,1.1454,1.1447,1.1444,1.1444,1.1443,1.1447,1.1447,1.1476,1.1442,1.1443,1.1444,1.1444,1.1537,1.1538,0,0,0,0,0,0,1.1461,1.1461,1.148,1.148,1.1456,1.1455,1.1454,1.146,1.1454,1.1452,1.1446,1.1442,1.1445,1.1446,1.1447,1.1493,1.1443,1.1445,1.1445,1.1535,1.1537,1.1539,0,0,0,0,0,0,1.1461,1.1463,1.148,1.147,1.1471,1.1457,1.1464,1.1461,1.1465,1.1453,1.145,1.1452,1.1444,1.1445,1.1469,1.1492,1.1445,1.1446,1.1533,1.1536,1.1538,1.1584,0,0,0,0,0,0,1.146,1.1463,1.1477,1.147,1.1472,1.1502,1.1466,1.1462,1.1467,1.1463,1.1458,1.1456,1.1443,1.1468,1.1471,1.1493,1.1447,1.1531,1.1534,1.1537,1.158,1.1587,1.1594,0,0,0,0,0,1.1459,1.149,1.1478,1.1481,1.1489,1.1503,1.1504,1.1488,1.1469,1.1483,1.1476,1.1456,1.1489,1.147,1.1474,1.1497,1.153,1.1534,1.1537,1.1577,1.1586,1.1593,0,0,0,0,0,0,1.15,1.1489,1.1475,1.1505,1.1505,1.1497,1.1514,1.1498,1.1504,1.15,1.148,1.148,1.1507,1.1504,1.1483,1.1534,1.1506,1.1511,1.1535,1.1544,1.155,1.1551,1.1449,0,0,0,0,0,1.1512,1.1525,1.1514,1.1541,1.1542,1.1528,1.1534,1.1522,1.1522,1.1522,1.1516,1.1517,1.1528,1.1536,1.1545,1.1579,1.1579,1.1597,1.1604,1.1609,1.1614,1.1633,1.1642,1.1551,1.1551,1.1551,0,0,1.1538,1.1533,1.1542,1.1549,1.1548,1.1562,1.1529,1.1545,1.1555,1.1524,1.1547,1.1543,1.1543,1.1573,1.1586,1.1572,1.1639,1.1614,1.1619,1.162,1.1638,1.1647,1.1654,1.1554,1.1553,1.1553,0,0,1.1592,1.1589,1.1612,1.1612,1.1611,1.1602,1.1608,1.1602,1.1598,1.162,1.1598,1.1611,1.1629,1.163,1.1634,1.169,1.1673,1.1694,1.1729,1.1749,1.1756,1.1762,1.1783,1.1791,1.1698,1.1698,1.1698,0,1.1624,1.1644,1.1626,1.1644,1.1648,1.1621,1.1644,1.1645,1.1648,1.1652,1.1635,1.1659,1.1657,1.1687,1.1701,1.1704,1.1711,1.1694,1.1756,1.1762,1.1768,1.1788,1.1796,1.1701,1.17,1.17,1.17,0,1.1684,1.1699,1.1717,1.172,1.1726,1.1747,1.1733,1.1742,1.1729,1.1722,1.1746,1.1743,1.1751,1.1758,1.1745,1.1787,1.1778,1.1759,1.1731,1.1779,1.1798,1.1805,1.1704,1.1703,1.1703,1.1702,0,0,1.1764,1.1757,1.1764,1.1766,1.1764,1.1775,1.1795,1.1803,1.1812,1.1814,1.1831,1.1848,1.1831,1.1835,1.1823,1.184,1.1886,1.1819,1.1818,1.1832,1.1934,1.1949,1.1958,1.1875,1.1876,1.1877,1.1934,0,1.1817,1.185,1.1835,1.187,1.1884,1.1859,1.1876,1.1878,1.1872,1.1883,1.1877,1.1889,1.1865,1.1868,1.1883,1.1877,1.1906,1.1873,1.1891,1.1892,1.1893,1.1967,1.1983,1.2037,1.1941,1.1942,1.1943,0,1.1883,1.1889,1.1926,1.1922,1.1927,1.1943,1.1951,1.1962,1.1963,1.1957,1.1962,1.1947,1.1967,1.1938,1.1967,1.1944,1.1951,1.1949,1.1951,1.1953,1.1921,1.1972,1.2053,1.2062,1.1954,1.1953,1.1953,0,1.1939,1.1956,1.198,1.1982,1.1979,1.1991,1.199,1.1989,1.1996,1.2003,1.2007,1.2016,1.2021,1.2029,1.2016,1.1996,1.2047,1.2017,1.2044,1.2045,1.2056,1.2056,1.2141,1.206,1.2059,1.2059,1.2059,0,1.2,1.2024,1.2006,1.2021,1.2047,1.203,1.2057,1.2053,1.2053,1.2068,1.2047,1.2061,1.2044,1.2057,1.2047,1.2073,1.2075,1.2072,1.207,1.2075,1.2075,1.2079,1.2076,1.2061,1.2061,1.2061,1.206,0,1.2067,1.2055,1.2081,1.2075,1.2075,1.2094,1.209,1.2105,1.2097,1.2117,1.212,1.2109,1.2124,1.2112,1.2126,1.212,1.2155,1.2146,1.2154,1.2152,1.2181,1.2178,1.2272,1.2284,1.2194,1.2195,1.2195,0,1.2107,1.2125,1.2122,1.213,1.213,1.2144,1.2151,1.2135,1.2143,1.2147,1.2161,1.2174,1.2183,1.2207,1.2201,1.2212,1.2205,1.2237,1.2206,1.2211,1.2206,1.2206,1.2208,1.2243,1.2244,1.2245,1.2246,0,1.218,1.2174,1.2184,1.2193,1.2202,1.2208,1.2213,1.2221,1.2205,1.2216,1.223,1.2237,1.2252,1.2265,1.2275,1.2274,1.2258,1.2255,1.2262,1.2268,1.2272,1.2272,1.2172,1.2253,1.2252,1.2252,1.2251,1.2251,1.2236,1.2251,1.2251,1.2264,1.2266,1.2271,1.2285,1.228,1.2292,1.2302,1.2292,1.231,1.2312,1.2323,1.2325,1.2339,1.2326,1.2336,1.2339,1.2342,1.2346,1.227,1.2341,1.2341,1.234,1.234,1.234,0,1.2309,1.2308,1.232,1.2327,1.2338,1.2321,1.2326,1.2336,1.2352,1.2355,1.2365,1.2382,1.2395,1.2391,1.2403,1.2415,1.2408,1.2419,1.2418,1.2419,1.2357,1.235,1.2425,1.2425,1.2425,1.2425,1.2424,1.2424,1.2348,1.2373,1.2368,1.2394,1.2393,1.2411,1.2415,1.242,1.2423,1.2443,1.2454,1.2451,1.2451,1.2463,1.2475,1.2473,1.2479,1.2493,1.2489,1.2431,1.2423,1.2415,1.2409,1.2494,1.2494,1.2549,1.255,1.255]},{"header":{"parameterUnit":"m.s-1","parameterCategory":1,"la1":30.2991,"la2":30.254,"lo1":-89.0895,"lo2":-89.0444,"dy":0.0017,"dx":0.0017,"nx":28,"ny":28,"refTime":"2023-07-30T03:00:00:Z","depth":0,"parameterNumber":3,"parameterNumberName":"V-component_of_WINDS"},"data":[0,0,0,0,0,0,0,0,0,0,0,0,0,0,0,0,0,0,0,0,0,0,0,0,0,0,0,0,0,0,0,0,0,0,0,0,0,0,0,0,0,0,0,0,0,0,0,0,0,0,0,0,0,0,0,0,0,0,-1.7553,-1.7553,0,-1.7552,-1.7552,-1.7552,-1.7553,-1.7553,-1.7553,-1.7553,-1.7549,-1.7549,-1.7549,0,0,0,0,0,0,0,0,0,0,0,0,0,-1.7555,-1.7555,-1.7553,-1.7553,-1.7553,-1.7552,-1.7552,-1.7552,-1.7553,-1.7553,-1.7553,-1.7553,-1.7549,-1.7549,-1.7549,0,0,0,0,0,0,0,0,0,0,0,0,0,-1.7554,-1.7555,-1.7553,-1.7554,-1.7554,-1.7552,-1.7552,-1.7552,-1.7553,-1.7553,-1.7553,-1.7553,-1.7549,-1.7549,-1.7549,-1.7546,0,0,-1.7548,-1.7548,0,0,0,0,0,0,0,0,-1.7554,-1.7554,-1.7554,-1.7554,-1.7554,-1.7553,-1.7551,-1.755,-1.7553,-1.7553,-1.7553,-1.7553,-1.755,-1.755,-1.7549,-1.7546,-1.7545,-1.7548,-1.7548,-1.7548,-1.7548,0,0,0,0,0,0,0,-1.7554,-1.7554,-1.7553,-1.7554,-1.7554,-1.7553,-1.7553,-1.7551,-1.7551,-1.7553,-1.7553,-1.7553,-1.755,-1.7549,-1.7549,-1.7545,-1.7548,-1.7548,-1.7548,-1.7548,-1.7542,-1.7542,0,0,0,0,0,0,-1.7555,-1.7554,-1.7553,-1.7553,-1.7554,-1.7553,-1.7553,-1.7553,-1.7551,-1.7551,-1.7553,-1.7553,-1.755,-1.7549,-1.7549,-1.7547,-1.7548,-1.7548,-1.7547,-1.7542,-1.7542,-1.7542,0,0,0,0,0,0,-1.7555,-1.7554,-1.7553,-1.7553,-1.7553,-1.7553,-1.7553,-1.7553,-1.7552,-1.7551,-1.7551,-1.7553,-1.755,-1.7549,-1.7547,-1.7547,-1.7547,-1.7547,-1.7542,-1.7542,-1.7542,-1.7542,0,0,0,0,0,0,-1.7555,-1.7554,-1.7553,-1.7553,-1.7553,-1.7551,-1.7553,-1.7553,-1.7552,-1.7552,-1.7551,-1.755,-1.755,-1.7548,-1.7547,-1.7547,-1.7547,-1.7542,-1.7542,-1.7542,-1.7542,-1.7542,-1.7542,0,0,0,0,0,-1.7555,-1.7553,-1.7553,-1.7553,-1.7552,-1.7551,-1.7551,-1.7551,-1.7552,-1.7551,-1.7551,-1.755,-1.7547,-1.7547,-1.7547,-1.7546,-1.7542,-1.7542,-1.7542,-1.7542,-1.7542,-1.7542,0,0,0,0,0,0,-1.7551,-1.7552,-1.7553,-1.7551,-1.7551,-1.7551,-1.755,-1.7551,-1.755,-1.755,-1.755,-1.7549,-1.7547,-1.7546,-1.7547,-1.7544,-1.7544,-1.7544,-1.7545,-1.7545,-1.7545,-1.7545,-1.7547,0,0,0,0,0,-1.755,-1.755,-1.7551,-1.7549,-1.7549,-1.755,-1.7549,-1.755,-1.7549,-1.7549,-1.7548,-1.7548,-1.7547,-1.7546,-1.7544,-1.7542,-1.7542,-1.7541,-1.7541,-1.7541,-1.7541,-1.7542,-1.7542,-1.7541,-1.7541,-1.7541,0,0,-1.7548,-1.7549,-1.7548,-1.7548,-1.7548,-1.7548,-1.755,-1.7549,-1.7549,-1.7549,-1.7547,-1.7547,-1.7546,-1.7545,-1.7544,-1.7544,-1.7542,-1.7541,-1.7541,-1.7541,-1.7542,-1.7542,-1.7542,-1.7541,-1.7541,-1.7541,0,0,-1.7544,-1.7544,-1.7544,-1.7544,-1.7545,-1.7546,-1.7546,-1.7546,-1.7547,-1.7546,-1.7546,-1.7546,-1.7543,-1.7543,-1.7543,-1.7542,-1.7542,-1.7541,-1.7541,-1.7542,-1.7542,-1.7542,-1.7542,-1.7542,-1.7541,-1.7541,-1.7541,0,-1.7541,-1.7541,-1.7543,-1.7543,-1.7543,-1.7545,-1.7545,-1.7545,-1.7545,-1.7545,-1.7545,-1.7544,-1.7543,-1.7543,-1.7543,-1.7542,-1.7542,-1.7541,-1.7542,-1.7542,-1.7542,-1.7542,-1.7543,-1.7541,-1.7541,-1.7541,-1.7541,0,-1.7538,-1.7538,-1.7537,-1.7539,-1.754,-1.7539,-1.7541,-1.7541,-1.7542,-1.7543,-1.7543,-1.7542,-1.7542,-1.7542,-1.7542,-1.7542,-1.7542,-1.7542,-1.7542,-1.7542,-1.7543,-1.7543,-1.7541,-1.7541,-1.7541,-1.7541,0,0,-1.753,-1.7535,-1.7535,-1.7536,-1.7538,-1.7539,-1.7539,-1.754,-1.7541,-1.7541,-1.7541,-1.7541,-1.7541,-1.7541,-1.7541,-1.7542,-1.7543,-1.7542,-1.7542,-1.7543,-1.7544,-1.7544,-1.7545,-1.7543,-1.7543,-1.7543,-1.7544,0,-1.7527,-1.7529,-1.7532,-1.7532,-1.7533,-1.7536,-1.7536,-1.7538,-1.7539,-1.754,-1.754,-1.7541,-1.7541,-1.7541,-1.7542,-1.7542,-1.7543,-1.7542,-1.7543,-1.7543,-1.7544,-1.7545,-1.7545,-1.7546,-1.7544,-1.7545,-1.7545,0,-1.7524,-1.7526,-1.7527,-1.7531,-1.7532,-1.7532,-1.7535,-1.7535,-1.7537,-1.7538,-1.7539,-1.754,-1.7541,-1.7541,-1.7543,-1.7542,-1.7543,-1.7544,-1.7544,-1.7544,-1.7544,-1.7546,-1.7547,-1.7547,-1.7545,-1.7545,-1.7545,0,-1.752,-1.7523,-1.7525,-1.7526,-1.753,-1.7531,-1.7532,-1.7535,-1.7536,-1.7537,-1.7538,-1.754,-1.754,-1.7542,-1.7543,-1.7543,-1.7545,-1.7545,-1.7546,-1.7546,-1.7546,-1.7546,-1.7548,-1.7546,-1.7546,-1.7546,-1.7546,0,-1.7517,-1.7517,-1.7523,-1.7524,-1.7526,-1.7529,-1.753,-1.7532,-1.7534,-1.7536,-1.7538,-1.7539,-1.7541,-1.7542,-1.7543,-1.7545,-1.7545,-1.7546,-1.7547,-1.7546,-1.7546,-1.7547,-1.7547,-1.7546,-1.7546,-1.7546,-1.7546,0,-1.7512,-1.7516,-1.7518,-1.7523,-1.7524,-1.7525,-1.7529,-1.7531,-1.7533,-1.7535,-1.7535,-1.7538,-1.7541,-1.7543,-1.7545,-1.7546,-1.7548,-1.7548,-1.7548,-1.7548,-1.755,-1.755,-1.7552,-1.7553,-1.755,-1.755,-1.755,0,-1.751,-1.7511,-1.7517,-1.7519,-1.7521,-1.7524,-1.7526,-1.7529,-1.7531,-1.7535,-1.7536,-1.7538,-1.7541,-1.7544,-1.7546,-1.7549,-1.7549,-1.755,-1.7549,-1.755,-1.7551,-1.7551,-1.7551,-1.755,-1.755,-1.755,-1.755,0,-1.7506,-1.7509,-1.7512,-1.7517,-1.7519,-1.7522,-1.7526,-1.7527,-1.7531,-1.7533,-1.7536,-1.7538,-1.7542,-1.7545,-1.7548,-1.755,-1.7551,-1.755,-1.7551,-1.7551,-1.7551,-1.7552,-1.7549,-1.755,-1.755,-1.755,-1.755,-1.755,-1.7504,-1.7506,-1.7511,-1.7515,-1.7518,-1.7522,-1.7524,-1.7527,-1.753,-1.7535,-1.7536,-1.754,-1.7543,-1.7548,-1.755,-1.7552,-1.7552,-1.7553,-1.7553,-1.7553,-1.7554,-1.7551,-1.7553,-1.7553,-1.7553,-1.7553,-1.7553,0,-1.7501,-1.7505,-1.7509,-1.7515,-1.7518,-1.7521,-1.7525,-1.7527,-1.7531,-1.7535,-1.7538,-1.7542,-1.7546,-1.7549,-1.7553,-1.7554,-1.7555,-1.7555,-1.7555,-1.7556,-1.7553,-1.7553,-1.7555,-1.7555,-1.7555,-1.7555,-1.7555,-1.7555,-1.7501,-1.7505,-1.7508,-1.7514,-1.7518,-1.7522,-1.7525,-1.7529,-1.7532,-1.7537,-1.7541,-1.7543,-1.7547,-1.7552,-1.7555,-1.7556,-1.7558,-1.7558,-1.7559,-1.7556,-1.7556,-1.7556,-1.7555,-1.7558,-1.7558,-1.7562,-1.7562,-1.7562]}]]